Regional Weather Roundup
Issued by NWS

Home | Current Version | Previous Version | Text Only | Print | Product List | Glossary Off
Versions: 1 2 3 4 5 6 7 8 9 10 11 12 13 14 15 16 17 18 19 20 21 22 23 24 25 26 27 28 29 30 31 32 33 34 35 36 37 38 39 40 41 42 43 44 45 46 47 48 49 50

000
ASUS43 KDMX 241306
RWRIA

WEATHER ROUNDUP FOR IOWA
NATIONAL WEATHER SERVICE DES MOINES IA
800 AM CDT SAT JUN 24 2017

NOTE: "FAIR" INDICATES FEW OR NO CLOUDS BELOW 12,000 FEET WITH NO
SIGNIFICANT WEATHER AND/OR OBSTRUCTIONS TO VISIBILITY.

* - THESE STATIONS ARE NOT NWS STATIONS...THUS NOT UNDER NWS
QUALITY CONTROL.  THEY ALSO DO NOT REPORT WEATHER SUCH
AS PRECIPITATION OR FOG.

IAZ001>003-012>014-020>022-031>034-043>046-241400-
   NORTHWEST IOWA

CITY           SKY/WX    TMP DP  RH WIND       PRES   REMARKS
CARROLL *      SUNNY     59  45  58 W10       30.14R
DENISON *      SUNNY     55  46  71 W6        30.17R
LE MARS *      MOSUNNY   57  45  62 W3        30.15S
ORANGE CITY *  SUNNY     55  48  76 W6        30.14R
SHELDON *      SUNNY     57  45  62 VRB5      30.12R
SIOUX CITY     MOSUNNY   56  43  61 W5        30.16R
SPENCER        SUNNY     55  45  68 W8        30.12R
STORM LAKE *   SUNNY     55  45  67 W6        30.14R
$$

IAZ055>058-069>071-079>083-090>094-241400-
   SOUTHWEST IOWA

CITY           SKY/WX    TMP DP  RH WIND       PRES   REMARKS
AUDUBON *      SUNNY     57  46  67 NW6       30.16R
CLARINDA *     SUNNY     61  48  63 NW6       30.19R
COUNCIL BLFS * SUNNY     59  46  63 W5        30.17S
CRESTON *      SUNNY     59  48  67 NW8       30.16R
HARLAN  *      SUNNY     57  46  67 NW8       30.19S
LAMONI         SUNNY     62  47  57 NW12      30.14R
SHENANDOAH *   SUNNY     59  50  72 CALM      30.18R
$$

IAZ047>049-059>061-072>074-084-241400-
   CENTRAL IOWA

CITY           SKY/WX    TMP DP  RH WIND       PRES   REMARKS
AMES           SUNNY     60  46  59 NW16      30.11R
BOONE *        SUNNY     59  45  58 NW10      30.10S
DES MOINES     SUNNY     60  45  57 NW12      30.11R
GRINNELL*      SUNNY     58  49  70 NW10      30.10R
MARSHALLTOWN   SUNNY     58  49  72 NW12      30.08R
NEWTON *       SUNNY     59  48  67 NW10      30.10R
PELLA *        SUNNY     60  48  64 NW10G17   30.11R
PERRY *          N/A     57  48  70 W8        30.13R
$$

IAZ004>006-015-016-023>025-035-036-241400-
   NORTH CENTRAL IOWA

CITY           SKY/WX    TMP DP  RH WIND       PRES   REMARKS
ALGONA *       SUNNY     57  45  62 NW12      30.10R
CLARION *        N/A     57  46  67 NW14      30.09R
ESTHERVILLE    SUNNY     56  45  66 W10       30.09R
FORT DODGE *   SUNNY     57  45  62 NW8       30.12R
MASON CITY     SUNNY     57  44  62 NW16G23   30.08R
FOREST CITY *    N/A     57  36  44 NW10G18   30.07S
WEBSTER CITY * SUNNY     57  46  67 NW12      30.09R
IOWA FALLS *     N/A     58  49  72 W10       30.10R
$$

IAZ007>011-017>019-026>030-037>042-050>054-066-241400-
   NORTHEAST IOWA

CITY           SKY/WX    TMP DP  RH WIND       PRES   REMARKS
CEDAR RAPIDS   SUNNY     58  51  78 NW17      30.04R
CLINTON *      SUNNY     61  53  75 NW13      30.01R
DUBUQUE        SUNNY     60  49  66 NW13      30.00R
WATERLOO       SUNNY     58  46  64 W10       30.05R
$$

IAZ064-065-067-068-078-241400-
   EAST CENTRAL IOWA

CITY           SKY/WX    TMP DP  RH WIND       PRES   REMARKS
DAVENPORT      SUNNY     62  52  69 W15       30.02R
IOWA CITY      SUNNY     63  50  62 NW12      30.06R
MUSCATINE *    SUNNY     63  52  67 W13       30.05R
QUAD CITIES    SUNNY     64  50  60 NW14G22   30.02R
$$

IAZ062-063-075>077-085>089-095>099-241400-
   SOUTHEAST IOWA

CITY           SKY/WX    TMP DP  RH WIND       PRES   REMARKS
BURLINGTON     SUNNY     63  53  70 NW10      30.06R
FAIRFIELD *    SUNNY     61  48  63 W12G20    30.07R
KEOKUK *       SUNNY     63  54  72 NW7       30.08R
OSKALOOSA *      N/A     61  49  65 NW12      30.09R
OTTUMWA        SUNNY     62  50  64 NW10      30.08R
WASHINGTON *   SUNNY     61  52  72 NW13      30.07R
$$

ABBREVIATIONS USED IN REMARKS
   TC - TEMPERATURES IN CELSIUS
  WCI - WIND CHILL INDEX
   HX - HEAT INDEX
  VSB - VISIBILITY
$$




USA.gov is the U.S. government's official web portal to all federal, state and local government web resources and services.